Regional Weather Roundup
Issued by NWS Albany, NY

Home | Current Version | Previous Version | Graphics & Text | Print | Product List | Glossary Off
Versions: 1 2 3 4 5 6 7 8 9 10 11 12 13 14 15 16 17 18 19 20 21 22 23 24 25 26 27 28 29 30 31 32 33 34 35 36 37 38 39 40 41 42 43 44 45 46 47 48 49 50

000
ASUS41 KALY 291910
RWRALY

NEW YORK STATE HOURLY WEATHER ROUNDUP
NATIONAL WEATHER SERVICE ALBANY NY
300 PM EDT THU SEP 29 2016

NOTE: "FAIR" INDICATES FEW OR NO CLOUDS BELOW 12,000 FEET WITH NO
SIGNIFICANT WEATHER AND/OR NO OBSTRUCTIONS TO VISIBILITY.

NYZ032-033-038>043-046>054-057>066-NYZ062>081-082-084-292000-
EAST


CITY           SKY/WX    TMP DP  RH WIND       PRES   REMARKS
ALBANY         CLOUDY    67  45  45 E6        30.41F
GLENS FALLS    MOSUNNY   68  44  42 NE8       30.42S
POUGHKEEPSIE   CLOUDY    67  45  45 E14       30.36F
NEWBURGH       MOSUNNY   66  50  55 E14G23    30.38F
MONTGOMERY     CLOUDY    66  49  54 E10       30.36F
WHITE PLAINS   PTSUNNY   64  50  60 E9        30.36F
ISLIP          CLOUDY    62  52  69 E20G29    30.37S
NEW YORK CITY  CLOUDY    65  52  62 E20       30.36S
CENTRAL PARK   CLOUDY    63  52  67 E10G20    30.38F
$$

NYZ005>009-017-018-044>046-055-056-292000-
CENTRAL


CITY           SKY/WX    TMP DP  RH WIND       PRES   REMARKS
FULTON         PTSUNNY   63  47  55 E9G16     30.37S
SYRACUSE       PTSUNNY   61  49  64 E12       30.35F
ROME           CLOUDY    62  50  64 SE9       30.40S
ELMIRA         CLOUDY    60  55  83 E6        30.31F
BINGHAMTON     CLOUDY    56  53  90 E7        30.34S
MONTICELLO     MOSUNNY   59  46  63 E10G18    30.38S
$$

NYZ026>034-041>043-087-292000-
NORTH


CITY           SKY/WX    TMP DP  RH WIND       PRES   REMARKS
WATERTOWN      PTSUNNY   68  51  54 NE13      30.38S
FORT DRUM      NOT AVBL
OGDENSBURG     FAIR      64  51  63 E15G21    30.42S
MASSENA        SUNNY     63  47  55 NE18      30.45F
SARANAC LAKE   CLOUDY    63  46  54 E13       30.43S
PLATTSBURGH    SUNNY     66  48  52 NE6       30.47S
$$

NYZ001>004-010>016-019>021-085-292000-
WEST


CITY           SKY/WX    TMP DP  RH WIND       PRES   REMARKS
NIAGARA FALLS  LGT RAIN  60  53  77 E14G23    30.28S
BUFFALO        CLOUDY    57  54  89 E15       30.28S
DUNKIRK        LGT RAIN  62  59  90 NE10      30.22R
JAMESTOWN      CLOUDY    59  55  88 SE10      30.22R
WELLSVILLE     CLOUDY    57  54  89 SE10G22   30.30R
ROCHESTER      CLOUDY    58  55  90 E12       30.34S
PENN YAN       LGT RAIN  59  54  83 VRB6      30.34S
$$

             KEY
       WCI = WIND CHILL INDEX
       VSB = VISIBILITY
       HX  = HEAT INDEX
$$



USA.gov is the U.S. government's official web portal to all federal, state and local government web resources and services.